カタログに戻る

BREEZE-M DEB

TANK

運用中HEO
NORAD 28188·DEBRIS·🇷🇺 Russia

打ち上げ Mar 15, 2004 から Baikonur Cosmodrome

Loading…

次のパス (今後24時間)

TLE

最新Source: Space-Track

元期: Sep 13, 2026, 09:00 UTC

1 28188U 04008B   26256.37554544  .00002694  00000-0  42204-3 0  9993
2 28188  49.5259 359.1778 4915642 269.3640  36.5520  5.76698614439733

AllMySatでBREEZE-M DEBをリアルタイム追跡

Download on the App Store